Change the Weather History Date:

Monday, June 18, 2012

  Actual Average Record
Temperature  
Mean Temperature 60 °F -  
Max Temperature 77 °F 66 °F 77 °F (2002)
Min Temperature 43 °F 33 °F 27 °F (1978)
Degree Days  
Heating Degree Days 5 15  
Month to date heating degree days 243 315  
Since 1 June heating degree days 243 315  
Since 1 July heating degree days 10410 11069  
Cooling Degree Days 0 0  
Month to date cooling degree days 0 0  
Year to date cooling degree days 0 0  
Since 1 June cooling degree days 0 0  
Growing Degree Days 12 (Base 50)    
Moisture  
Dew Point 14 °F    
Average Humidity 20    
Maximum Humidity 31    
Minimum Humidity 9    
Precipitation  
Precipitation 0.00 in 0.03 in 0.36 in (2004)
Month to date precipitation 0.13 0.53  
Year to date precipitation 3.83 4.66  
Snow  
Snow 0.00 in - - ()
Month to date snowfall 0.0  
Since 1 June snowfall 0.0  
Snow Depth 0.00 in    
Sea Level Pressure  
Sea Level Pressure 29.60 in    
Wind  
Wind Speed 8 mph (NNW)    
Max Wind Speed 21 mph    
Max Gust Speed 31 mph    
Visibility 10 miles    
Events      
T = Trace of Precipitation, MM = Missing Value Source: NWS Daily Summary

Daily Weather History Graph

Daily Weather History Graph

Search for Another Location

Airport or City:

Trip Planner

Search our weather history database for the weather conditions in past years. The results will help you decide how hot, cold, wet, or windy it might be!

Date:

Astronomy

Jun. 18, 2012 Rise Set
Actual Time 5:38 AM MDT 8:34 PM MDT
Civil Twilight 5:06 AM MDT 9:06 PM MDT
Nautical Twilight 4:25 AM MDT 9:47 PM MDT
Astronomical Twilight 3:38 AM MDT 10:34 PM MDT
Moon 4:54 AM MDT (6/18) 7:55 PM MDT (6/18)
Length of Visible Light 16h 00m
Length of Day
14h 55m
Waning Crescent, 1% of the Moon is Illuminated
Jun 18
Waning Crescent
Jun 19
New
Jun 26
First Quarter
Jul 3
Full
Jul 10
Last Quarter

Hourly Weather History & Observations

Time (MDT) Temp. Windchill Dew Point Humidity Pressure Visibility Wind Dir Wind Speed Gust Speed Precip Events Conditions
12:53 AM 53.1 °F - 19.0 °F 26% 29.66 in 10.0 mi NE 5.8 mph - N/A   Clear
1:53 AM 48.9 °F - 19.0 °F 31% 29.67 in 10.0 mi ENE 8.1 mph - N/A   Clear
2:53 AM 48.9 °F - 18.0 °F 29% 29.66 in 10.0 mi Variable 6.9 mph - N/A   Clear
3:53 AM 48.0 °F - 18.0 °F 30% 29.66 in 10.0 mi SSW 8.1 mph - N/A   Clear
4:53 AM 51.1 °F - 16.0 °F 25% 29.64 in 10.0 mi NNE 9.2 mph - N/A   Clear
5:53 AM 52.0 °F - 14.0 °F 22% 29.65 in 10.0 mi North 4.6 mph - N/A   Clear
6:53 AM 51.1 °F - 18.0 °F 27% 29.67 in 10.0 mi Calm Calm - N/A   Clear
7:53 AM 57.9 °F - 19.0 °F 22% 29.64 in 10.0 mi Calm Calm - N/A   Clear
8:53 AM 64.0 °F - 10.0 °F 12% 29.64 in 10.0 mi NNW 8.1 mph - N/A   Clear
9:53 AM 66.9 °F - 8.1 °F 10% 29.64 in 10.0 mi WNW 12.7 mph 21.9 mph N/A   Clear
10:53 AM 69.1 °F - 10.0 °F 10% 29.62 in 10.0 mi NNW 16.1 mph 26.5 mph N/A   Clear
11:53 AM 71.1 °F - 10.0 °F 9% 29.61 in 10.0 mi NW 12.7 mph 21.9 mph N/A   Clear
12:53 PM 73.0 °F - 10.9 °F 9% 29.58 in 10.0 mi West 11.5 mph 17.3 mph N/A   Clear
1:53 PM 73.0 °F - 12.0 °F 10% 29.58 in 10.0 mi WNW 8.1 mph 18.4 mph N/A   Clear
2:53 PM 73.9 °F - 10.0 °F 9% 29.55 in 10.0 mi Variable 3.5 mph - N/A   Clear
3:53 PM 75.0 °F - 14.0 °F 10% 29.53 in 10.0 mi WNW 11.5 mph 21.9 mph N/A   Clear
4:53 PM 73.0 °F - 12.9 °F 10% 29.52 in 10.0 mi West 12.7 mph 19.6 mph N/A   Clear
5:53 PM 73.0 °F - 17.1 °F 12% 29.50 in 10.0 mi WNW 16.1 mph 24.2 mph N/A   Clear
6:53 PM 71.1 °F - 17.1 °F 13% 29.54 in 10.0 mi WNW 11.5 mph 21.9 mph N/A   Clear
7:53 PM 66.9 °F - 10.9 °F 11% 29.53 in 10.0 mi WNW 12.7 mph 24.2 mph N/A   Clear
8:53 PM 62.1 °F - 10.9 °F 13% 29.55 in 10.0 mi NNE 3.5 mph - N/A   Clear
9:53 PM 57.0 °F - 12.9 °F 18% 29.58 in 10.0 mi NE 3.5 mph - N/A   Clear
10:53 PM 51.1 °F - 14.0 °F 23% 29.61 in 10.0 mi ENE 6.9 mph - N/A   Clear
11:53 PM 45.0 °F 41.2 °F 16.0 °F 31% 29.63 in 10.0 mi NE 6.9 mph - N/A   Clear